Skip Page Navigation
NASA JPL Caltech
NASA Logo - Jet Propulsion Laboratory + View the NASA Portal
+ Center for Near-Earth Object Studies
JPL Home Earth Solar System Stars & Galaxies Technology
JPL Solar System Dynamics
BODIES ORBITS EPHEMERIDES TOOLS PHYSICAL DATA DISCOVERY FAQ SITE MAP
JPL Small-Body Database Browser
Search: [ help ]  
(2014 UZ224)
Classification: TransNeptunian Object          SPK-ID: 3760651
Ephemeris | Orbit Diagram | Orbital Elements | Physical Parameters ]

[ hide orbit diagram ]

For accurate long-term ephemerides, please instead use our Horizons system.This orbit viewer was implemented using two-body methods, and hence should not be used for determining accurate long-term trajectories (over several years or decades) or planetary encounter circumstances.


Orbital Elements at Epoch 2459200.5 (2020-Dec-17.0) TDB
Reference: JPL 8 (heliocentric ecliptic J2000)
 Element Value Uncertainty (1-sigma)   Units 
e .6438219836817632 0.001144  
a 107.8713376637091 0.27637 au
q 38.4213990666546 0.029058 au
i 26.79020048112385 3.664e-05 deg
node 130.6810529022185 0.0036586 deg
peri 29.81001928967831 0.062755 deg
M 320.7799787066086 0.20908 deg
tp 2503782.838766435234
(2143-Jan-09.33876644)
67.377 TDB
period 409220.6334069748
1120.39
1572.6
4.306
d
yr
n .000879721037042567 3.3808e-06 deg/d
Q 177.3212762607636 0.4543 au
  Orbit Determination Parameters
   # obs. used (total)      48  
   data-arc span      4414 days (12.08 yr)  
   first obs. used      2006-10-15  
   last obs. used      2018-11-15  
   planetary ephem.      DE441  
   SB-pert. ephem.      SB441-N16  
   condition code      5  
   norm. resid. RMS      .14435  
   source      ORB  
   producer      Otto Matic  
   solution date      2021-Apr-15 11:41:03  

Additional Information
 Earth MOID = 37.4564 au 
 Jupiter MOID = 33.1356 au 
 T_jup = 6.268 
[ show covariance matrix ]

Ephemeris | Orbit Diagram | Orbital Elements | Physical Parameters ]

Physical Parameter Table
Parameter Symbol Value Units Sigma Reference Notes
absolute magnitude H 3.51   n/a E2021A28  
Ephemeris | Orbit Diagram | Orbital Elements | Physical Parameters ]
ABOUT SSD CREDITS/AWARDS PRIVACY/COPYRIGHT GLOSSARY LINKS
FirstGov 2021-May-06 16:15 UT
(server date/time)  
NASA Home Page
Site Manager:   Ryan S. Park
Webmaster  Alan B. Chamberlin